Tabellarische Ansicht des 4.10.2012


Die einzelnen Werte des Tages

Uhrzeit Temperatur Luftdruck Luftfeuchte Wind Hi-Wind Taupunkt THW Index Wind Chill Heat Index Solar- strahlung Regen

00:00

11.4 C

1005.5 hpa

94 %

3.2 km/h aus 109

8.0 km/h aus WNW

10.5 C

11.6 C

11.4 C

11.6 C

0 W/m

0.00 mm

00:05

11.4 C

1005.5 hpa

94 %

1.6 km/h aus 109

6.4 km/h aus WNW

10.5 C

11.6 C

11.4 C

11.6 C

0 W/m

0.00 mm

00:10

11.3 C

1005.5 hpa

94 %

1.6 km/h aus 111

4.8 km/h aus WNW

10.4 C

11.5 C

11.3 C

11.5 C

0 W/m

0.25 mm

00:15

11.3 C

1005.4 hpa

94 %

1.6 km/h aus 111

4.8 km/h aus WNW

10.3 C

11.4 C

11.3 C

11.4 C

0 W/m

0.00 mm

00:20

11.3 C

1005.4 hpa

94 %

1.6 km/h aus 112

4.8 km/h aus WNW

10.4 C

11.5 C

11.3 C

11.5 C

0 W/m

0.00 mm

00:25

11.2 C

1005.4 hpa

94 %

3.2 km/h aus 110

6.4 km/h aus WNW

10.3 C

11.4 C

11.2 C

11.4 C

0 W/m

0.00 mm

00:30

11.2 C

1005.1 hpa

94 %

1.6 km/h aus 110

4.8 km/h aus WNW

10.3 C

11.4 C

11.2 C

11.4 C

0 W/m

0.00 mm

00:35

11.2 C

1005.1 hpa

94 %

3.2 km/h aus 109

6.4 km/h aus WNW

10.3 C

11.4 C

11.2 C

11.4 C

0 W/m

0.00 mm

00:40

11.3 C

1005.1 hpa

94 %

1.6 km/h aus 111

6.4 km/h aus WNW

10.3 C

11.4 C

11.3 C

11.4 C

0 W/m

0.25 mm

00:45

11.3 C

1005.0 hpa

94 %

1.6 km/h aus 110

4.8 km/h aus WNW

10.3 C

11.4 C

11.3 C

11.4 C

0 W/m

0.00 mm

00:50

11.3 C

1005.0 hpa

94 %

1.6 km/h aus 106

4.8 km/h aus WNW

10.3 C

11.4 C

11.3 C

11.4 C

0 W/m

0.00 mm

00:55

11.3 C

1005.0 hpa

94 %

1.6 km/h aus 113

4.8 km/h aus WNW

10.3 C

11.4 C

11.3 C

11.4 C

0 W/m

0.00 mm

01:00

11.3 C

1005.0 hpa

94 %

1.6 km/h aus 107

4.8 km/h aus WNW

10.3 C

11.4 C

11.3 C

11.4 C

0 W/m

0.00 mm

01:05

11.3 C

1005.0 hpa

94 %

3.2 km/h aus 109

6.4 km/h aus WNW

10.3 C

11.4 C

11.3 C

11.4 C

0 W/m

0.00 mm

01:10

11.3 C

1005.0 hpa

94 %

3.2 km/h aus 107

4.8 km/h aus WNW

10.3 C

11.4 C

11.3 C

11.4 C

0 W/m

0.00 mm

01:15

11.3 C

1004.9 hpa

94 %

0.0 km/h aus 112

3.2 km/h aus WNW

10.3 C

11.4 C

11.3 C

11.4 C

0 W/m

0.00 mm

01:20

11.2 C

1004.9 hpa

94 %

1.6 km/h aus 109

6.4 km/h aus WNW

10.3 C

11.4 C

11.2 C

11.4 C

0 W/m

0.25 mm

01:25

11.2 C

1004.9 hpa

94 %

3.2 km/h aus 111

6.4 km/h aus WNW

10.3 C

11.4 C

11.2 C

11.4 C

0 W/m

0.00 mm

01:30

11.2 C

1004.8 hpa

94 %

3.2 km/h aus 106

6.4 km/h aus WNW

10.3 C

11.4 C

11.2 C

11.4 C

0 W/m

0.25 mm

01:35

11.2 C

1004.8 hpa

94 %

1.6 km/h aus 109

4.8 km/h aus WNW

10.3 C

11.4 C

11.2 C

11.4 C

0 W/m

0.00 mm

01:40

11.2 C

1004.8 hpa

94 %

3.2 km/h aus 111

6.4 km/h aus WNW

10.2 C

11.3 C

11.2 C

11.3 C

0 W/m

0.00 mm

01:45

11.2 C

1004.6 hpa

94 %

1.6 km/h aus 111

4.8 km/h aus WNW

10.2 C

11.3 C

11.2 C

11.3 C

0 W/m

0.00 mm

01:50

11.2 C

1004.6 hpa

94 %

1.6 km/h aus 112

4.8 km/h aus WNW

10.2 C

11.3 C

11.2 C

11.3 C

0 W/m

0.25 mm

01:55

11.1 C

1004.6 hpa

94 %

0.0 km/h aus 110

4.8 km/h aus WNW

10.2 C

11.3 C

11.1 C

11.3 C

0 W/m

0.00 mm

02:00

11.1 C

1004.6 hpa

94 %

0.0 km/h aus 105

1.6 km/h aus WNW

10.2 C

11.3 C

11.1 C

11.3 C

0 W/m

0.00 mm

02:05

11.1 C

1004.6 hpa

94 %

1.6 km/h aus 110

4.8 km/h aus WNW

10.2 C

11.3 C

11.1 C

11.3 C

0 W/m

0.00 mm

02:10

11.1 C

1004.6 hpa

94 %

1.6 km/h aus 112

4.8 km/h aus WNW

10.1 C

11.2 C

11.1 C

11.2 C

0 W/m

0.00 mm

02:15

11.1 C

1004.6 hpa

94 %

0.0 km/h aus 111

1.6 km/h aus WNW

10.1 C

11.2 C

11.1 C

11.2 C

0 W/m

0.00 mm

02:20

11.1 C

1004.6 hpa

94 %

0.0 km/h aus 115

3.2 km/h aus WNW

10.1 C

11.2 C

11.1 C

11.2 C

0 W/m

0.00 mm

02:25

11.1 C

1004.6 hpa

94 %

1.6 km/h aus 110

9.7 km/h aus WNW

10.1 C

11.2 C

11.1 C

11.2 C

0 W/m

0.00 mm

02:30

11.1 C

1004.5 hpa

94 %

3.2 km/h aus 109

8.0 km/h aus WNW

10.1 C

11.2 C

11.1 C

11.2 C

0 W/m

0.00 mm

02:35

11.1 C

1004.5 hpa

94 %

3.2 km/h aus 109

6.4 km/h aus WNW

10.1 C

11.2 C

11.1 C

11.2 C

0 W/m

0.00 mm

02:40

11.0 C

1004.5 hpa

94 %

4.8 km/h aus 104

11.3 km/h aus NW

10.1 C

11.1 C

10.9 C

11.2 C

0 W/m

0.00 mm

02:45

11.0 C

1004.5 hpa

94 %

1.6 km/h aus 107

3.2 km/h aus NW

10.1 C

11.2 C

11.0 C

11.2 C

0 W/m

0.00 mm

02:50

11.0 C

1004.5 hpa

94 %

1.6 km/h aus 102

4.8 km/h aus NW

10.1 C

11.2 C

11.0 C

11.2 C

0 W/m

0.00 mm

02:55

10.9 C

1004.5 hpa

94 %

0.0 km/h aus 108

1.6 km/h aus NW

10.0 C

11.1 C

10.9 C

11.1 C

0 W/m

0.00 mm

03:00

10.9 C

1004.5 hpa

94 %

1.6 km/h aus 106

4.8 km/h aus NW

10.0 C

11.1 C

10.9 C

11.1 C

0 W/m

0.00 mm

03:05

10.9 C

1004.5 hpa

94 %

1.6 km/h aus 92

6.4 km/h aus NW

10.0 C

11.1 C

10.9 C

11.1 C

0 W/m

0.00 mm

03:10

10.9 C

1004.5 hpa

94 %

0.0 km/h aus 92

1.6 km/h aus NW

10.0 C

11.1 C

10.9 C

11.1 C

0 W/m

0.00 mm

03:15

10.8 C

1004.5 hpa

94 %

4.8 km/h aus 100

9.7 km/h aus NW

9.9 C

10.9 C

10.8 C

11.0 C

0 W/m

0.00 mm

03:20

10.8 C

1004.5 hpa

94 %

4.8 km/h aus 112

14.5 km/h aus NW

9.9 C

10.9 C

10.8 C

11.0 C

0 W/m

0.00 mm

03:25

10.8 C

1004.5 hpa

94 %

1.6 km/h aus 108

4.8 km/h aus NW

9.9 C

10.9 C

10.8 C

10.9 C

0 W/m

0.25 mm

03:30

10.8 C

1004.2 hpa

94 %

1.6 km/h aus 107

6.4 km/h aus NW

9.9 C

10.9 C

10.8 C

10.9 C

0 W/m

0.00 mm

03:35

10.7 C

1004.2 hpa

94 %

1.6 km/h aus 108

4.8 km/h aus NW

9.8 C

10.9 C

10.7 C

10.9 C

0 W/m

0.00 mm

03:40

10.6 C

1004.2 hpa

94 %

3.2 km/h aus 105

8.0 km/h aus NW

9.7 C

10.8 C

10.6 C

10.8 C

0 W/m

0.00 mm

03:45

10.6 C

1004.3 hpa

94 %

0.0 km/h aus 116

4.8 km/h aus NW

9.7 C

10.8 C

10.6 C

10.8 C

0 W/m

0.00 mm

03:50

10.6 C

1004.3 hpa

94 %

0.0 km/h aus 108

1.6 km/h aus NW

9.6 C

10.8 C

10.6 C

10.8 C

0 W/m

0.00 mm

03:55

10.6 C

1004.3 hpa

94 %

0.0 km/h aus 109

0.0 km/h aus ---

9.6 C

10.8 C

10.6 C

10.8 C

0 W/m

0.00 mm

04:00

10.6 C

1004.0 hpa

94 %

1.6 km/h aus 110

4.8 km/h aus NW

9.6 C

10.8 C

10.6 C

10.8 C

0 W/m

0.00 mm

04:05

10.6 C

1004.0 hpa

94 %

3.2 km/h aus 115

4.8 km/h aus NW

9.6 C

10.8 C

10.6 C

10.8 C

0 W/m

0.00 mm

04:10

10.6 C

1004.0 hpa

94 %

4.8 km/h aus 108

8.0 km/h aus NW

9.6 C

10.7 C

10.4 C

10.8 C

0 W/m

0.00 mm

04:15

10.6 C

1003.7 hpa

94 %

6.4 km/h aus 105

9.7 km/h aus SE

9.6 C

10.2 C

10.0 C

10.8 C

0 W/m

0.00 mm

04:20

10.6 C

1003.7 hpa

94 %

6.4 km/h aus 108

9.7 km/h aus SE

9.6 C

10.2 C

10.0 C

10.8 C

0 W/m

0.00 mm

04:25

10.6 C

1003.7 hpa

94 %

6.4 km/h aus 100

11.3 km/h aus SE

9.6 C

10.2 C

10.0 C

10.8 C

0 W/m

0.00 mm

04:30

10.6 C

1003.7 hpa

94 %

3.2 km/h aus 107

6.4 km/h aus SE

9.7 C

10.8 C

10.6 C

10.8 C

0 W/m

0.00 mm

04:35

10.6 C

1003.7 hpa

94 %

1.6 km/h aus 109

6.4 km/h aus SE

9.7 C

10.8 C

10.6 C

10.8 C

0 W/m

0.00 mm

04:40

10.6 C

1003.7 hpa

94 %

0.0 km/h aus 113

3.2 km/h aus SE

9.6 C

10.8 C

10.6 C

10.8 C

0 W/m

0.00 mm

04:45

10.6 C

1003.6 hpa

94 %

0.0 km/h aus 108

1.6 km/h aus SE

9.6 C

10.8 C

10.6 C

10.8 C

0 W/m

0.00 mm

04:50

10.6 C

1003.6 hpa

94 %

1.6 km/h aus 111

4.8 km/h aus SE

9.6 C

10.8 C

10.6 C

10.8 C

0 W/m

0.00 mm

04:55

10.6 C

1003.6 hpa

94 %

1.6 km/h aus 110

4.8 km/h aus SE

9.6 C

10.8 C

10.6 C

10.8 C

0 W/m

0.25 mm

05:00

10.6 C

1003.4 hpa

94 %

0.0 km/h aus 115

3.2 km/h aus SE

9.6 C

10.8 C

10.6 C

10.8 C

0 W/m

0.00 mm

05:05

10.6 C

1003.4 hpa

94 %

0.0 km/h aus 113

3.2 km/h aus SE

9.6 C

10.8 C

10.6 C

10.8 C

0 W/m

0.25 mm

05:10

10.6 C

1003.4 hpa

94 %

3.2 km/h aus 107

6.4 km/h aus SE

9.6 C

10.8 C

10.6 C

10.8 C

0 W/m

0.25 mm

05:15

10.6 C

1003.4 hpa

94 %

1.6 km/h aus 111

4.8 km/h aus SE

9.6 C

10.8 C

10.6 C

10.8 C

0 W/m

0.00 mm

05:20

10.5 C

1003.4 hpa

94 %

0.0 km/h aus 112

1.6 km/h aus SE

9.6 C

10.7 C

10.5 C

10.7 C

0 W/m

0.00 mm

05:25

10.5 C

1003.4 hpa

94 %

0.0 km/h aus 117

3.2 km/h aus SE

9.6 C

10.7 C

10.5 C

10.7 C

0 W/m

0.00 mm

05:30

10.5 C

1003.4 hpa

94 %

0.0 km/h aus 115

1.6 km/h aus SE

9.6 C

10.7 C

10.5 C

10.7 C

0 W/m

0.00 mm

05:35

10.5 C

1003.4 hpa

94 %

0.0 km/h aus 111

1.6 km/h aus SE

9.6 C

10.7 C

10.5 C

10.7 C

0 W/m

0.00 mm

05:40

10.5 C

1003.4 hpa

94 %

1.6 km/h aus 110

4.8 km/h aus SE

9.6 C

10.7 C

10.5 C

10.7 C

0 W/m

0.00 mm

05:45

10.5 C

1003.4 hpa

94 %

0.0 km/h aus 110

0.0 km/h aus ---

9.6 C

10.7 C

10.5 C

10.7 C

0 W/m

0.25 mm

05:50

10.5 C

1003.4 hpa

94 %

1.6 km/h aus 110

6.4 km/h aus SE

9.6 C

10.7 C

10.5 C

10.7 C

0 W/m

0.00 mm

05:55

10.5 C

1003.4 hpa

94 %

6.4 km/h aus 109

11.3 km/h aus SE

9.6 C

10.2 C

9.9 C

10.7 C

0 W/m

0.00 mm

06:00

10.6 C

1003.0 hpa

94 %

9.7 km/h aus 106

17.7 km/h aus SSE

9.6 C

9.6 C

9.4 C

10.8 C

0 W/m

0.00 mm

06:05

10.7 C

1003.0 hpa

95 %

12.9 km/h aus 108

19.3 km/h aus SSE

9.9 C

9.1 C

8.8 C

10.9 C

0 W/m

0.00 mm

06:10

10.8 C

1003.0 hpa

95 %

9.7 km/h aus 102

17.7 km/h aus S

10.0 C

9.8 C

9.6 C

11.0 C

0 W/m

0.25 mm

06:15

10.8 C

1002.9 hpa

95 %

8.0 km/h aus 108

11.3 km/h aus S

10.1 C

10.2 C

10.0 C

11.1 C

0 W/m

0.00 mm

06:20

10.9 C

1002.9 hpa

95 %

8.0 km/h aus 109

14.5 km/h aus S

10.1 C

10.2 C

10.1 C

11.1 C

0 W/m

0.00 mm

06:25

10.9 C

1002.9 hpa

94 %

6.4 km/h aus 115

11.3 km/h aus S

10.0 C

10.6 C

10.4 C

11.1 C

0 W/m

0.25 mm

06:30

11.0 C

1002.5 hpa

95 %

6.4 km/h aus 110

9.7 km/h aus S

10.2 C

10.7 C

10.6 C

11.2 C

0 W/m

0.00 mm

06:35

11.1 C

1002.5 hpa

95 %

3.2 km/h aus 110

6.4 km/h aus S

10.3 C

11.2 C

11.1 C

11.2 C

0 W/m

0.25 mm

06:40

11.1 C

1002.5 hpa

95 %

0.0 km/h aus 110

1.6 km/h aus S

10.3 C

11.2 C

11.1 C

11.2 C

0 W/m

0.00 mm

06:45

11.1 C

1002.5 hpa

95 %

0.0 km/h aus 112

1.6 km/h aus S

10.3 C

11.2 C

11.1 C

11.2 C

0 W/m

0.00 mm

06:50

11.1 C

1002.5 hpa

95 %

0.0 km/h aus 114

0.0 km/h aus ---

10.3 C

11.2 C

11.1 C

11.2 C

0 W/m

0.25 mm

06:55

11.1 C

1002.5 hpa

95 %

0.0 km/h aus 107

0.0 km/h aus ---

10.3 C

11.2 C

11.1 C

11.2 C

0 W/m

0.00 mm

07:00

11.1 C

1002.4 hpa

95 %

0.0 km/h aus 110

0.0 km/h aus ---

10.3 C

11.2 C

11.1 C

11.2 C

0 W/m

0.00 mm

07:05

11.1 C

1002.4 hpa

95 %

0.0 km/h aus 113

1.6 km/h aus S

10.3 C

11.3 C

11.1 C

11.3 C

0 W/m

0.25 mm

07:10

11.2 C

1002.4 hpa

95 %

0.0 km/h aus 108

1.6 km/h aus S

10.4 C

11.3 C

11.2 C

11.3 C

0 W/m

0.00 mm

07:15

11.2 C

1002.3 hpa

95 %

0.0 km/h aus 105

0.0 km/h aus ---

10.4 C

11.3 C

11.2 C

11.3 C

0 W/m

0.25 mm

07:20

11.2 C

1002.3 hpa

95 %

0.0 km/h aus 108

1.6 km/h aus S

10.5 C

11.4 C

11.2 C

11.4 C

0 W/m

0.00 mm

07:25

11.2 C

1002.3 hpa

95 %

1.6 km/h aus 104

4.8 km/h aus S

10.5 C

11.4 C

11.2 C

11.4 C

0 W/m

0.00 mm

07:30

11.2 C

1002.2 hpa

95 %

0.0 km/h aus 107

0.0 km/h aus ---

10.5 C

11.4 C

11.2 C

11.4 C

0 W/m

0.25 mm

07:35

11.2 C

1002.2 hpa

95 %

0.0 km/h aus 111

0.0 km/h aus ---

10.5 C

11.4 C

11.2 C

11.4 C

0 W/m

0.00 mm

07:40

11.2 C

1002.2 hpa

95 %

0.0 km/h aus 104

1.6 km/h aus S

10.5 C

11.4 C

11.2 C

11.4 C

0 W/m

0.00 mm

07:45

11.2 C

1002.0 hpa

95 %

0.0 km/h aus 103

1.6 km/h aus S

10.5 C

11.4 C

11.2 C

11.4 C

0 W/m

0.25 mm

07:50

11.3 C

1002.0 hpa

95 %

0.0 km/h aus 103

1.6 km/h aus S

10.5 C

11.4 C

11.3 C

11.4 C

0 W/m

0.00 mm

07:55

11.3 C

1002.0 hpa

95 %

0.0 km/h aus 108

3.2 km/h aus S

10.5 C

11.4 C

11.3 C

11.4 C

0 W/m

0.00 mm

08:00

11.3 C

1001.8 hpa

95 %

1.6 km/h aus 108

4.8 km/h aus S

10.5 C

11.4 C

11.3 C

11.4 C

0 W/m

0.25 mm

08:05

11.3 C

1001.8 hpa

95 %

1.6 km/h aus 112

4.8 km/h aus S

10.5 C

11.4 C

11.3 C

11.4 C

0 W/m

0.00 mm

08:10

11.3 C

1001.8 hpa

95 %

0.0 km/h aus 109

4.8 km/h aus S

10.5 C

11.4 C

11.3 C

11.4 C

0 W/m

0.25 mm

08:15

11.3 C

1001.7 hpa

95 %

1.6 km/h aus 115

4.8 km/h aus S

10.6 C

11.5 C

11.3 C

11.5 C

0 W/m

0.00 mm

08:20

11.3 C

1001.7 hpa

95 %

0.0 km/h aus 116

3.2 km/h aus S

10.6 C

11.5 C

11.3 C

11.5 C

0 W/m

0.25 mm

08:25

11.4 C

1001.7 hpa

95 %

0.0 km/h aus 116

3.2 km/h aus S

10.6 C

11.6 C

11.4 C

11.6 C

0 W/m

0.25 mm

08:30

11.4 C

1001.5 hpa

95 %

0.0 km/h aus 115

1.6 km/h aus S

10.6 C

11.6 C

11.4 C

11.6 C

0 W/m

0.00 mm

08:35

11.4 C

1001.5 hpa

95 %

0.0 km/h aus 115

0.0 km/h aus ---

10.6 C

11.6 C

11.4 C

11.6 C

0 W/m

0.25 mm

08:40

11.4 C

1001.5 hpa

95 %

0.0 km/h aus 111

3.2 km/h aus S

10.7 C

11.6 C

11.4 C

11.6 C

0 W/m

0.51 mm

08:45

11.4 C

1001.6 hpa

95 %

0.0 km/h aus 111

3.2 km/h aus S

10.7 C

11.6 C

11.4 C

11.6 C

0 W/m

0.25 mm

08:50

11.4 C

1001.6 hpa

95 %

0.0 km/h aus 107

3.2 km/h aus S

10.7 C

11.6 C

11.4 C

11.6 C

0 W/m

0.51 mm

08:55

11.5 C

1001.6 hpa

95 %

0.0 km/h aus 102

1.6 km/h aus S

10.7 C

11.7 C

11.5 C

11.7 C

0 W/m

0.25 mm

09:00

11.5 C

1001.4 hpa

95 %

0.0 km/h aus 113

0.0 km/h aus ---

10.7 C

11.7 C

11.5 C

11.7 C

0 W/m

0.25 mm

09:05

11.5 C

1001.4 hpa

95 %

0.0 km/h aus 112

0.0 km/h aus ---

10.7 C

11.7 C

11.5 C

11.7 C

0 W/m

0.51 mm

09:10

11.5 C

1001.4 hpa

95 %

0.0 km/h aus 113

0.0 km/h aus ---

10.7 C

11.7 C

11.5 C

11.7 C

0 W/m

0.25 mm

09:15

11.5 C

1001.4 hpa

95 %

0.0 km/h aus 113

3.2 km/h aus S

10.7 C

11.7 C

11.5 C

11.7 C

0 W/m

0.25 mm

09:20

11.6 C

1001.4 hpa

95 %

0.0 km/h aus 108

3.2 km/h aus S

10.8 C

11.7 C

11.6 C

11.7 C

0 W/m

0.25 mm

09:25

11.6 C

1001.4 hpa

95 %

1.6 km/h aus 110

4.8 km/h aus S

10.8 C

11.7 C

11.6 C

11.7 C

0 W/m

0.25 mm

09:30

11.6 C

1001.3 hpa

95 %

1.6 km/h aus 104

4.8 km/h aus S

10.8 C

11.7 C

11.6 C

11.7 C

0 W/m

0.00 mm

09:35

11.6 C

1001.3 hpa

95 %

0.0 km/h aus 108

1.6 km/h aus S

10.8 C

11.7 C

11.6 C

11.7 C

0 W/m

0.00 mm

09:40

11.6 C

1001.3 hpa

95 %

3.2 km/h aus 106

6.4 km/h aus S

10.8 C

11.7 C

11.6 C

11.7 C

0 W/m

0.76 mm

09:45

11.6 C

1001.3 hpa

95 %

4.8 km/h aus 107

8.0 km/h aus NW

10.8 C

11.7 C

11.6 C

11.7 C

0 W/m

0.25 mm

09:50

11.6 C

1001.3 hpa

95 %

1.6 km/h aus 108

6.4 km/h aus NW

10.8 C

11.7 C

11.6 C

11.7 C

0 W/m

0.25 mm

09:55

11.5 C

1001.3 hpa

95 %

4.8 km/h aus 109

6.4 km/h aus NW

10.7 C

11.7 C

11.5 C

11.7 C

0 W/m

0.00 mm

10:00

11.5 C

1001.1 hpa

95 %

3.2 km/h aus 109

9.7 km/h aus NW

10.7 C

11.7 C

11.5 C

11.7 C

0 W/m

0.25 mm

10:05

11.5 C

1001.1 hpa

95 %

1.6 km/h aus 106

6.4 km/h aus NW

10.7 C

11.7 C

11.5 C

11.7 C

0 W/m

0.25 mm

10:10

11.4 C

1001.1 hpa

95 %

1.6 km/h aus 105

8.0 km/h aus NW

10.7 C

11.6 C

11.4 C

11.6 C

0 W/m

0.25 mm

10:15

11.4 C

1001.2 hpa

95 %

4.8 km/h aus 108

9.7 km/h aus NW

10.6 C

11.6 C

11.4 C

11.6 C

0 W/m

0.25 mm

10:20

11.3 C

1001.2 hpa

95 %

3.2 km/h aus 114

6.4 km/h aus NW

10.6 C

11.5 C

11.3 C

11.5 C

0 W/m

0.25 mm

10:25

11.3 C

1001.2 hpa

94 %

1.6 km/h aus 116

4.8 km/h aus NW

10.3 C

11.4 C

11.3 C

11.4 C

0 W/m

0.00 mm

10:30

11.2 C

1001.1 hpa

95 %

3.2 km/h aus 111

6.4 km/h aus NW

10.4 C

11.3 C

11.2 C

11.3 C

0 W/m

0.25 mm

10:35

11.2 C

1001.1 hpa

95 %

1.6 km/h aus 112

6.4 km/h aus NW

10.4 C

11.3 C

11.2 C

11.3 C

0 W/m

0.25 mm

10:40

11.1 C

1001.1 hpa

95 %

3.2 km/h aus 101

6.4 km/h aus NW

10.3 C

11.3 C

11.1 C

11.3 C

0 W/m

0.00 mm

10:45

11.1 C

1001.0 hpa

95 %

3.2 km/h aus 109

6.4 km/h aus NW

10.3 C

11.2 C

11.1 C

11.2 C

0 W/m

0.25 mm

10:50

11.1 C

1001.0 hpa

95 %

1.6 km/h aus 107

3.2 km/h aus NW

10.3 C

11.2 C

11.1 C

11.2 C

0 W/m

0.00 mm

10:55

11.1 C

1001.0 hpa

95 %

1.6 km/h aus 105

6.4 km/h aus NW

10.3 C

11.2 C

11.1 C

11.2 C

0 W/m

0.25 mm

11:00

11.1 C

1000.8 hpa

95 %

1.6 km/h aus 112

6.4 km/h aus NW

10.3 C

11.3 C

11.1 C

11.3 C

0 W/m

0.00 mm

11:05

11.1 C

1000.8 hpa

95 %

0.0 km/h aus 111

1.6 km/h aus NW

10.3 C

11.3 C

11.1 C

11.3 C

0 W/m

0.00 mm

11:10

11.1 C

1000.8 hpa

95 %

1.6 km/h aus 113

6.4 km/h aus NW

10.3 C

11.3 C

11.1 C

11.3 C

0 W/m

0.00 mm

11:15

11.2 C

1000.8 hpa

95 %

1.6 km/h aus 107

3.2 km/h aus NW

10.4 C

11.3 C

11.2 C

11.3 C

0 W/m

0.25 mm

11:20

11.2 C

1000.8 hpa

95 %

1.6 km/h aus 112

4.8 km/h aus NW

10.4 C

11.3 C

11.2 C

11.3 C

0 W/m

0.00 mm

11:25

11.2 C

1000.8 hpa

95 %

3.2 km/h aus 106

8.0 km/h aus NW

10.5 C

11.4 C

11.2 C

11.4 C

0 W/m

0.25 mm

11:30

11.2 C

1000.3 hpa

95 %

1.6 km/h aus 109

6.4 km/h aus NW

10.5 C

11.4 C

11.2 C

11.4 C

0 W/m

0.00 mm

11:35

11.3 C

1000.3 hpa

95 %

1.6 km/h aus 109

4.8 km/h aus NW

10.5 C

11.4 C

11.3 C

11.4 C

0 W/m

0.00 mm

11:40

11.3 C

1000.3 hpa

95 %

1.6 km/h aus 114

6.4 km/h aus NW

10.5 C

11.4 C

11.3 C

11.4 C

0 W/m

0.25 mm

11:45

11.3 C

1000.3 hpa

95 %

1.6 km/h aus 110

6.4 km/h aus NW

10.5 C

11.4 C

11.3 C

11.4 C

0 W/m

0.00 mm

11:50

11.3 C

1000.3 hpa

95 %

1.6 km/h aus 107

4.8 km/h aus NW

10.5 C

11.4 C

11.3 C

11.4 C

0 W/m

0.25 mm

11:55

11.3 C

1000.3 hpa

95 %

1.6 km/h aus 108

4.8 km/h aus NW

10.5 C

11.4 C

11.3 C

11.4 C

0 W/m

0.25 mm

12:00

11.3 C

1000.7 hpa

95 %

3.2 km/h aus 106

4.8 km/h aus NW

10.5 C

11.4 C

11.3 C

11.4 C

0 W/m

0.25 mm

12:05

11.3 C

1000.7 hpa

95 %

1.6 km/h aus 107

4.8 km/h aus NW

10.5 C

11.4 C

11.3 C

11.4 C

0 W/m

0.25 mm

12:10

11.2 C

1000.7 hpa

95 %

4.8 km/h aus 108

14.5 km/h aus WNW

10.5 C

11.3 C

11.2 C

11.4 C

0 W/m

0.51 mm

12:15

11.1 C

1000.8 hpa

95 %

6.4 km/h aus 109

11.3 km/h aus WNW

10.3 C

10.8 C

10.6 C

11.2 C

0 W/m

0.25 mm

12:20

10.9 C

1000.8 hpa

94 %

9.7 km/h aus 98

20.9 km/h aus WNW

10.0 C

10.0 C

9.8 C

11.1 C

0 W/m

0.25 mm

12:25

10.8 C

1000.8 hpa

94 %

9.7 km/h aus 110

19.3 km/h aus WNW

9.9 C

9.8 C

9.6 C

10.9 C

0 W/m

0.00 mm

12:30

10.6 C

1000.9 hpa

94 %

14.5 km/h aus 102

20.9 km/h aus WNW

9.7 C

8.7 C

8.4 C

10.8 C

0 W/m

0.25 mm

12:35

10.5 C

1000.9 hpa

94 %

6.4 km/h aus 109

14.5 km/h aus WNW

9.6 C

10.2 C

9.9 C

10.7 C

0 W/m

0.25 mm

12:40

10.4 C

1000.9 hpa

94 %

8.0 km/h aus 111

14.5 km/h aus NW

9.5 C

9.8 C

9.6 C

10.7 C

0 W/m

0.25 mm

12:45

10.3 C

1000.9 hpa

95 %

9.7 km/h aus 110

24.1 km/h aus WNW

9.6 C

9.3 C

9.1 C

10.6 C

0 W/m

0.25 mm

12:50

10.3 C

1000.9 hpa

95 %

8.0 km/h aus 100

17.7 km/h aus NW

9.5 C

9.6 C

9.3 C

10.6 C

0 W/m

0.51 mm

12:55

10.2 C

1000.9 hpa

94 %

6.4 km/h aus 109

14.5 km/h aus WNW

9.3 C

9.8 C

9.6 C

10.4 C

0 W/m

0.25 mm

13:00

10.1 C

1001.2 hpa

94 %

8.0 km/h aus 112

16.1 km/h aus WNW

9.2 C

9.3 C

9.1 C

10.3 C

0 W/m

0.25 mm

13:05

10.1 C

1001.2 hpa

95 %

8.0 km/h aus 104

14.5 km/h aus WNW

9.3 C

9.3 C

9.1 C

10.3 C

0 W/m

0.25 mm

13:10

9.9 C

1001.2 hpa

95 %

6.4 km/h aus 109

16.1 km/h aus WNW

9.2 C

9.6 C

9.3 C

10.2 C

0 W/m

0.25 mm

13:15

9.9 C

1001.3 hpa

95 %

4.8 km/h aus 109

11.3 km/h aus NW

9.2 C

10.1 C

9.8 C

10.2 C

0 W/m

0.00 mm

13:20

9.9 C

1001.3 hpa

94 %

4.8 km/h aus 112

11.3 km/h aus W

9.0 C

10.1 C

9.8 C

10.2 C

0 W/m

0.25 mm

13:25

9.9 C

1001.3 hpa

94 %

6.4 km/h aus 98

16.1 km/h aus WNW

9.0 C

9.6 C

9.3 C

10.2 C

0 W/m

0.25 mm

13:30

9.9 C

1001.5 hpa

95 %

6.4 km/h aus 106

16.1 km/h aus WNW

9.2 C

9.6 C

9.3 C

10.2 C

0 W/m

0.00 mm

13:35

10.0 C

1001.5 hpa

95 %

6.4 km/h aus 107

11.3 km/h aus W

9.2 C

9.7 C

9.4 C

10.3 C

0 W/m

0.25 mm

13:40

10.0 C

1001.5 hpa

95 %

8.0 km/h aus 108

16.1 km/h aus NW

9.2 C

9.3 C

9.0 C

10.3 C

0 W/m

0.00 mm

13:45

10.0 C

1001.8 hpa

95 %

4.8 km/h aus 103

11.3 km/h aus WSW

9.2 C

10.1 C

9.8 C

10.3 C

0 W/m

0.25 mm

13:50

10.0 C

1001.8 hpa

95 %

8.0 km/h aus 102

16.1 km/h aus WSW

9.2 C

9.3 C

9.0 C

10.3 C

0 W/m

0.00 mm

13:55

10.0 C

1001.8 hpa

95 %

6.4 km/h aus 97

14.5 km/h aus NW

9.2 C

9.7 C

9.4 C

10.3 C

0 W/m

0.25 mm

14:00

10.0 C

1001.9 hpa

95 %

8.0 km/h aus 103

17.7 km/h aus W

9.2 C

9.3 C

9.0 C

10.3 C

0 W/m

0.25 mm

14:05

10.0 C

1001.9 hpa

95 %

8.0 km/h aus 110

17.7 km/h aus W

9.2 C

9.3 C

9.0 C

10.3 C

0 W/m

0.00 mm

14:10

9.9 C

1001.9 hpa

94 %

9.7 km/h aus 108

19.3 km/h aus WNW

9.0 C

8.9 C

8.7 C

10.2 C

0 W/m

0.25 mm

14:15

9.9 C

1001.9 hpa

94 %

8.0 km/h aus 112

16.1 km/h aus WSW

9.0 C

9.2 C

8.9 C

10.2 C

0 W/m

0.00 mm

14:20

9.9 C

1001.9 hpa

94 %

11.3 km/h aus 106

19.3 km/h aus W

9.0 C

8.6 C

8.3 C

10.2 C

0 W/m

0.25 mm

14:25

9.8 C

1001.9 hpa

94 %

12.9 km/h aus 109

22.5 km/h aus W

8.9 C

8.1 C

7.8 C

10.1 C

0 W/m

0.00 mm

14:30

9.8 C

1002.9 hpa

94 %

11.3 km/h aus 104

20.9 km/h aus W

8.9 C

8.5 C

8.2 C

10.1 C

0 W/m

0.25 mm

14:35

9.8 C

1002.9 hpa

94 %

12.9 km/h aus 109

24.1 km/h aus WSW

8.9 C

8.1 C

7.8 C

10.1 C

0 W/m

0.00 mm

14:40

9.8 C

1002.9 hpa

94 %

11.3 km/h aus 110

20.9 km/h aus WNW

8.9 C

8.4 C

8.2 C

10.1 C

0 W/m

0.25 mm

14:45

9.8 C

1002.9 hpa

94 %

14.5 km/h aus 106

24.1 km/h aus W

8.9 C

7.7 C

7.4 C

10.1 C

0 W/m

0.00 mm

14:50

9.9 C

1002.9 hpa

95 %

11.3 km/h aus 104

22.5 km/h aus WSW

9.2 C

8.7 C

8.4 C

10.2 C

0 W/m

0.00 mm

14:55

10.1 C

1002.9 hpa

95 %

11.3 km/h aus 106

22.5 km/h aus WNW

9.3 C

8.8 C

8.5 C

10.3 C

0 W/m

0.00 mm

15:00

10.2 C

1003.2 hpa

95 %

9.7 km/h aus 107

22.5 km/h aus W

9.4 C

9.2 C

8.9 C

10.4 C

0 W/m

0.00 mm

15:05

10.2 C

1003.2 hpa

95 %

9.7 km/h aus 105

19.3 km/h aus W

9.5 C

9.3 C

9.0 C

10.5 C

0 W/m

0.00 mm

15:10

10.2 C

1003.2 hpa

95 %

9.7 km/h aus 107

20.9 km/h aus WNW

9.5 C

9.3 C

9.0 C

10.5 C

0 W/m

0.00 mm

15:15

10.2 C

1003.5 hpa

95 %

9.7 km/h aus 111

19.3 km/h aus W

9.5 C

9.3 C

9.0 C

10.5 C

0 W/m

0.00 mm

15:20

10.2 C

1003.5 hpa

95 %

8.0 km/h aus 106

17.7 km/h aus SSW

9.5 C

9.6 C

9.3 C

10.5 C

0 W/m

0.00 mm

15:25

10.2 C

1003.5 hpa

94 %

9.7 km/h aus 110

19.3 km/h aus SW

9.3 C

9.2 C

9.0 C

10.4 C

0 W/m

0.00 mm

15:30

10.3 C

1004.0 hpa

95 %

11.3 km/h aus 111

29.0 km/h aus WSW

9.5 C

9.1 C

8.8 C

10.6 C

0 W/m

0.00 mm

15:35

10.3 C

1004.0 hpa

94 %

9.7 km/h aus 109

19.3 km/h aus WSW

9.4 C

9.3 C

9.1 C

10.5 C

0 W/m

0.00 mm

15:40

10.3 C

1004.0 hpa

94 %

11.3 km/h aus 113

24.1 km/h aus W

9.4 C

9.0 C

8.8 C

10.5 C

0 W/m

0.00 mm

15:45

10.3 C

1004.1 hpa

94 %

12.9 km/h aus 109

25.7 km/h aus W

9.4 C

8.6 C

8.4 C

10.5 C

0 W/m

0.00 mm

15:50

10.2 C

1004.1 hpa

94 %

9.7 km/h aus 106

22.5 km/h aus WSW

9.3 C

9.2 C

9.0 C

10.4 C

0 W/m

0.00 mm

15:55

10.2 C

1004.1 hpa

94 %

11.3 km/h aus 104

20.9 km/h aus WSW

9.2 C

8.9 C

8.7 C

10.4 C

0 W/m

0.00 mm

16:00

10.1 C

1004.5 hpa

94 %

12.9 km/h aus 114

22.5 km/h aus SSW

9.2 C

8.4 C

8.2 C

10.3 C

0 W/m

0.00 mm

16:05

10.1 C

1004.5 hpa

94 %

12.9 km/h aus 109

25.7 km/h aus SSW

9.1 C

8.3 C

8.1 C

10.3 C

0 W/m

0.00 mm

16:10

10.4 C

1004.5 hpa

94 %

9.7 km/h aus 107

19.3 km/h aus WSW

9.5 C

9.4 C

9.2 C

10.6 C

0 W/m

0.00 mm

16:15

10.4 C

1004.6 hpa

94 %

9.7 km/h aus 109

17.7 km/h aus SSW

9.5 C

9.5 C

9.3 C

10.7 C

0 W/m

0.00 mm

16:20

10.6 C

1004.6 hpa

93 %

11.3 km/h aus 110

17.7 km/h aus SW

9.5 C

9.3 C

9.2 C

10.8 C

0 W/m

0.00 mm

16:25

10.7 C

1004.6 hpa

93 %

11.3 km/h aus 107

19.3 km/h aus SSW

9.6 C

9.4 C

9.2 C

10.8 C

0 W/m

0.00 mm

16:30

10.8 C

1005.0 hpa

93 %

11.3 km/h aus 93

20.9 km/h aus WSW

9.7 C

9.6 C

9.4 C

11.0 C

0 W/m

0.00 mm

16:35

11.1 C

1005.0 hpa

92 %

12.9 km/h aus 107

24.1 km/h aus SSW

9.8 C

9.4 C

9.3 C

11.2 C

0 W/m

0.00 mm

16:40

11.4 C

1005.0 hpa

92 %

11.3 km/h aus 102

19.3 km/h aus SSW

10.1 C

10.2 C

10.1 C

11.5 C

0 W/m

0.00 mm

16:45

11.4 C

1005.1 hpa

91 %

14.5 km/h aus 109

27.4 km/h aus SSW

10.0 C

9.5 C

9.4 C

11.6 C

0 W/m

0.00 mm

16:50

11.5 C

1005.1 hpa

90 %

12.9 km/h aus 107

25.7 km/h aus SW

9.9 C

9.9 C

9.8 C

11.6 C

0 W/m

0.00 mm

16:55

11.7 C

1005.1 hpa

90 %

8.0 km/h aus 110

16.1 km/h aus SSW

10.1 C

11.0 C

10.9 C

11.7 C

0 W/m

0.00 mm

17:00

11.7 C

1005.5 hpa

89 %

12.9 km/h aus 104

20.9 km/h aus SW

9.9 C

10.1 C

10.1 C

11.7 C

0 W/m

0.00 mm

17:05

11.7 C

1005.5 hpa

89 %

11.3 km/h aus 109

22.5 km/h aus SSW

9.9 C

10.5 C

10.4 C

11.7 C

0 W/m

0.00 mm

17:10

11.7 C

1005.5 hpa

88 %

11.3 km/h aus 108

19.3 km/h aus S

9.7 C

10.4 C

10.4 C

11.7 C

0 W/m

0.00 mm

17:15

11.8 C

1005.7 hpa

89 %

9.7 km/h aus 110

19.3 km/h aus SSW

10.0 C

10.8 C

10.8 C

11.8 C

0 W/m

0.00 mm

17:20

11.8 C

1005.7 hpa

87 %

12.9 km/h aus 110

24.1 km/h aus SSW

9.7 C

10.3 C

10.3 C

11.8 C

0 W/m

0.00 mm

17:25

11.8 C

1005.7 hpa

87 %

12.9 km/h aus 110

24.1 km/h aus SW

9.7 C

10.3 C

10.3 C

11.8 C

0 W/m

0.00 mm

17:30

11.7 C

1006.0 hpa

87 %

11.3 km/h aus 106

19.3 km/h aus SW

9.6 C

10.5 C

10.5 C

11.7 C

0 W/m

0.00 mm

17:35

11.6 C

1006.0 hpa

86 %

14.5 km/h aus 108

25.7 km/h aus SSW

9.3 C

9.6 C

9.6 C

11.6 C

0 W/m

0.00 mm

17:40

11.6 C

1006.0 hpa

86 %

12.9 km/h aus 105

27.4 km/h aus SSW

9.3 C

9.9 C

9.9 C

11.6 C

0 W/m

0.00 mm

17:45

11.5 C

1006.3 hpa

87 %

12.9 km/h aus 105

27.4 km/h aus SW

9.4 C

9.8 C

9.8 C

11.5 C

0 W/m

0.00 mm

17:50

11.5 C

1006.3 hpa

87 %

12.9 km/h aus 106

20.9 km/h aus SW

9.4 C

9.8 C

9.8 C

11.5 C

0 W/m

0.00 mm

17:55

11.5 C

1006.3 hpa

87 %

11.3 km/h aus 103

24.1 km/h aus SW

9.4 C

10.2 C

10.2 C

11.5 C

0 W/m

0.51 mm

18:00

11.5 C

1006.9 hpa

87 %

12.9 km/h aus 109

27.4 km/h aus WSW

9.4 C

9.8 C

9.8 C

11.5 C

0 W/m

0.51 mm

18:05

11.4 C

1006.9 hpa

87 %

16.1 km/h aus 108

33.8 km/h aus WSW

9.3 C

9.0 C

9.0 C

11.4 C

0 W/m

0.25 mm

18:10

11.2 C

1006.9 hpa

87 %

16.1 km/h aus 105

32.2 km/h aus W

9.1 C

8.8 C

8.8 C

11.3 C

0 W/m

0.51 mm

18:15

11.1 C

1007.1 hpa

87 %

12.9 km/h aus 108

25.7 km/h aus WSW

9.0 C

9.4 C

9.3 C

11.1 C

0 W/m

0.00 mm

18:20

10.9 C

1007.1 hpa

87 %

9.7 km/h aus 109

19.3 km/h aus WSW

8.8 C

9.8 C

9.8 C

10.9 C

0 W/m

0.00 mm

18:25

10.8 C

1007.1 hpa

88 %

8.0 km/h aus 112

17.7 km/h aus W

8.9 C

10.1 C

10.0 C

10.9 C

0 W/m

0.00 mm

18:30

10.8 C

1007.6 hpa

88 %

9.7 km/h aus 98

17.7 km/h aus W

8.9 C

9.7 C

9.6 C

10.8 C

0 W/m

0.00 mm

18:35

10.7 C

1007.6 hpa

88 %

8.0 km/h aus 106

16.1 km/h aus WSW

8.8 C

9.8 C

9.8 C

10.7 C

0 W/m

0.00 mm

18:40

10.7 C

1007.6 hpa

88 %

9.7 km/h aus 106

20.9 km/h aus SW

8.8 C

9.6 C

9.5 C

10.7 C

0 W/m

0.00 mm

18:45

10.6 C

1008.1 hpa

89 %

9.7 km/h aus 105

17.7 km/h aus SW

8.9 C

9.6 C

9.4 C

10.7 C

0 W/m

0.00 mm

18:50

10.6 C

1008.1 hpa

89 %

9.7 km/h aus 111

22.5 km/h aus SW

8.8 C

9.5 C

9.4 C

10.7 C

0 W/m

0.00 mm

18:55

10.4 C

1008.1 hpa

89 %

9.7 km/h aus 113

17.7 km/h aus WSW

8.7 C

9.4 C

9.3 C

10.6 C

0 W/m

0.00 mm

19:00

10.4 C

1008.2 hpa

89 %

11.3 km/h aus 110

20.9 km/h aus SSW

8.7 C

9.0 C

8.9 C

10.5 C

0 W/m

0.00 mm

19:05

10.3 C

1008.2 hpa

89 %

11.3 km/h aus 112

24.1 km/h aus WSW

8.5 C

8.9 C

8.8 C

10.4 C

0 W/m

0.00 mm

19:10

10.2 C

1008.2 hpa

89 %

9.7 km/h aus 108

24.1 km/h aus SW

8.4 C

9.1 C

8.9 C

10.3 C

0 W/m

0.00 mm

19:15

10.1 C

1008.5 hpa

89 %

8.0 km/h aus 106

20.9 km/h aus SW

8.3 C

9.2 C

9.1 C

10.2 C

0 W/m

0.00 mm

19:20

10.0 C

1008.5 hpa

89 %

8.0 km/h aus 105

17.7 km/h aus SW

8.3 C

9.2 C

9.0 C

10.2 C

0 W/m

0.00 mm

19:25

9.9 C

1008.5 hpa

89 %

8.0 km/h aus 105

17.7 km/h aus SW

8.2 C

9.1 C

8.9 C

10.1 C

0 W/m

0.00 mm

19:30

9.9 C

1008.7 hpa

89 %

11.3 km/h aus 104

22.5 km/h aus SW

8.2 C

8.5 C

8.3 C

10.1 C

0 W/m

0.00 mm

19:35

9.9 C

1008.7 hpa

89 %

6.4 km/h aus 110

12.9 km/h aus SW

8.2 C

9.4 C

9.3 C

10.1 C

0 W/m

0.00 mm

19:40

9.8 C

1008.7 hpa

89 %

8.0 km/h aus 112

14.5 km/h aus WSW

8.1 C

8.9 C

8.8 C

10.0 C

0 W/m

0.00 mm

19:45

9.8 C

1008.9 hpa

89 %

8.0 km/h aus 108

16.1 km/h aus SW

8.1 C

8.9 C

8.8 C

10.0 C

0 W/m

0.00 mm

19:50

9.9 C

1008.9 hpa

90 %

8.0 km/h aus 100

12.9 km/h aus SW

8.3 C

9.1 C

8.9 C

10.1 C

0 W/m

0.00 mm

19:55

9.9 C

1008.9 hpa

90 %

6.4 km/h aus 107

14.5 km/h aus WSW

8.3 C

9.4 C

9.3 C

10.1 C

0 W/m

0.00 mm

20:00

9.9 C

1009.3 hpa

90 %

8.0 km/h aus 109

16.1 km/h aus SW

8.4 C

9.1 C

8.9 C

10.1 C

0 W/m

0.00 mm

20:05

10.0 C

1009.3 hpa

90 %

9.7 km/h aus 107

17.7 km/h aus SW

8.4 C

8.9 C

8.7 C

10.2 C

0 W/m

0.00 mm

20:10

10.0 C

1009.3 hpa

90 %

4.8 km/h aus 104

11.3 km/h aus SW

8.4 C

10.0 C

9.8 C

10.2 C

0 W/m

0.00 mm

20:15

10.0 C

1009.7 hpa

90 %

4.8 km/h aus 113

11.3 km/h aus SW

8.4 C

10.0 C

9.8 C

10.2 C

0 W/m

0.00 mm

20:20

10.1 C

1009.7 hpa

90 %

6.4 km/h aus 108

9.7 km/h aus SW

8.5 C

9.6 C

9.4 C

10.2 C

0 W/m

0.00 mm

20:25

10.1 C

1009.7 hpa

90 %

8.0 km/h aus 111

16.1 km/h aus SSW

8.5 C

9.2 C

9.1 C

10.2 C

0 W/m

0.00 mm

20:30

10.1 C

1009.8 hpa

90 %

9.7 km/h aus 112

17.7 km/h aus SSW

8.5 C

9.0 C

8.8 C

10.3 C

0 W/m

0.00 mm

20:35

10.1 C

1009.8 hpa

90 %

11.3 km/h aus 109

19.3 km/h aus SW

8.5 C

8.7 C

8.6 C

10.3 C

0 W/m

0.00 mm

20:40

10.1 C

1009.8 hpa

90 %

9.7 km/h aus 107

16.1 km/h aus SSW

8.5 C

9.0 C

8.8 C

10.3 C

0 W/m

0.00 mm

20:45

10.1 C

1010.2 hpa

90 %

9.7 km/h aus 113

17.7 km/h aus SSW

8.5 C

9.0 C

8.8 C

10.3 C

0 W/m

0.00 mm

20:50

10.1 C

1010.2 hpa

90 %

11.3 km/h aus 110

19.3 km/h aus SSW

8.5 C

8.7 C

8.6 C

10.3 C

0 W/m

0.00 mm

20:55

10.1 C

1010.2 hpa

90 %

9.7 km/h aus 106

17.7 km/h aus SSW

8.5 C

9.0 C

8.8 C

10.3 C

0 W/m

0.00 mm

21:00

10.1 C

1010.3 hpa

90 %

9.7 km/h aus 105

19.3 km/h aus SSW

8.5 C

9.0 C

8.8 C

10.3 C

0 W/m

0.00 mm

21:05

10.1 C

1010.3 hpa

90 %

8.0 km/h aus 111

14.5 km/h aus SW

8.5 C

9.3 C

9.1 C

10.3 C

0 W/m

0.00 mm

21:10

10.1 C

1010.3 hpa

90 %

6.4 km/h aus 103

11.3 km/h aus SW

8.5 C

9.6 C

9.4 C

10.2 C

0 W/m

0.00 mm

21:15

10.1 C

1010.3 hpa

90 %

6.4 km/h aus 111

16.1 km/h aus SSW

8.5 C

9.6 C

9.4 C

10.2 C

0 W/m

0.00 mm

21:20

10.0 C

1010.3 hpa

90 %

6.4 km/h aus 110

9.7 km/h aus SW

8.4 C

9.6 C

9.4 C

10.2 C

0 W/m

0.00 mm

21:25

10.0 C

1010.3 hpa

90 %

6.4 km/h aus 109

11.3 km/h aus SW

8.4 C

9.6 C

9.4 C

10.2 C

0 W/m

0.00 mm

21:30

9.9 C

1010.3 hpa

90 %

8.0 km/h aus 103

11.3 km/h aus SW

8.4 C

9.1 C

8.9 C

10.1 C

0 W/m

0.00 mm

21:35

9.9 C

1010.3 hpa

90 %

9.7 km/h aus 104

16.1 km/h aus SSW

8.3 C

8.8 C

8.6 C

10.1 C

0 W/m

0.00 mm

21:40

9.8 C

1010.3 hpa

90 %

8.0 km/h aus 105

14.5 km/h aus SSW

8.3 C

8.9 C

8.8 C

10.0 C

0 W/m

0.00 mm

21:45

9.8 C

1010.3 hpa

90 %

11.3 km/h aus 102

20.9 km/h aus SW

8.2 C

8.3 C

8.2 C

9.9 C

0 W/m

0.00 mm

21:50

9.7 C

1010.3 hpa

90 %

9.7 km/h aus 107

17.7 km/h aus SSW

8.2 C

8.6 C

8.4 C

9.9 C

0 W/m

0.00 mm

21:55

9.7 C

1010.3 hpa

90 %

9.7 km/h aus 107

17.7 km/h aus SW

8.2 C

8.6 C

8.4 C

9.9 C

0 W/m

0.00 mm

22:00

9.7 C

1010.4 hpa

90 %

11.3 km/h aus 109

19.3 km/h aus SSW

8.1 C

8.2 C

8.1 C

9.8 C

0 W/m

0.00 mm

22:05

9.7 C

1010.4 hpa

90 %

6.4 km/h aus 109

11.3 km/h aus SSW

8.1 C

9.2 C

9.0 C

9.8 C

0 W/m

0.00 mm

22:10

9.6 C

1010.4 hpa

90 %

8.0 km/h aus 108

14.5 km/h aus SW

8.1 C

8.7 C

8.6 C

9.8 C

0 W/m

0.00 mm

22:15

9.6 C

1010.7 hpa

90 %

8.0 km/h aus 107

14.5 km/h aus SW

8.1 C

8.7 C

8.6 C

9.8 C

0 W/m

0.00 mm

22:20

9.6 C

1010.7 hpa

90 %

6.4 km/h aus 100

12.9 km/h aus SSW

8.0 C

9.0 C

8.8 C

9.7 C

0 W/m

0.00 mm

22:25

9.6 C

1010.7 hpa

90 %

8.0 km/h aus 110

14.5 km/h aus SSW

8.0 C

8.6 C

8.4 C

9.7 C

0 W/m

0.00 mm

22:30

9.6 C

1010.8 hpa

90 %

8.0 km/h aus 103

12.9 km/h aus SSW

8.0 C

8.6 C

8.4 C

9.7 C

0 W/m

0.00 mm

22:35

9.6 C

1010.8 hpa

90 %

8.0 km/h aus 103

14.5 km/h aus SSW

8.0 C

8.6 C

8.4 C

9.7 C

0 W/m

0.00 mm

22:40

9.5 C

1010.8 hpa

90 %

8.0 km/h aus 106

11.3 km/h aus SSW

7.9 C

8.6 C

8.4 C

9.7 C

0 W/m

0.00 mm

22:45

9.5 C

1010.7 hpa

91 %

6.4 km/h aus 107

11.3 km/h aus SW

8.1 C

8.9 C

8.8 C

9.7 C

0 W/m

0.00 mm

22:50

9.5 C

1010.7 hpa

90 %

6.4 km/h aus 109

11.3 km/h aus SSW

7.9 C

8.9 C

8.8 C

9.7 C

0 W/m

0.00 mm

22:55

9.4 C

1010.7 hpa

90 %

4.8 km/h aus 102

9.7 km/h aus SSW

7.9 C

9.3 C

9.2 C

9.6 C

0 W/m

0.00 mm

23:00

9.4 C

1010.8 hpa

90 %

8.0 km/h aus 109

19.3 km/h aus SSW

7.9 C

8.5 C

8.3 C

9.6 C

0 W/m

0.00 mm

23:05

9.4 C

1010.8 hpa

90 %

8.0 km/h aus 109

17.7 km/h aus S

7.8 C

8.4 C

8.3 C

9.6 C

0 W/m

0.00 mm

23:10

9.4 C

1010.8 hpa

90 %

8.0 km/h aus 105

16.1 km/h aus SSW

7.8 C

8.4 C

8.3 C

9.6 C

0 W/m

0.00 mm

23:15

9.4 C

1011.1 hpa

90 %

6.4 km/h aus 104

11.3 km/h aus SSW

7.8 C

8.8 C

8.7 C

9.6 C

0 W/m

0.00 mm

23:20

9.4 C

1011.1 hpa

90 %

8.0 km/h aus 111

11.3 km/h aus SSW

7.8 C

8.4 C

8.3 C

9.6 C

0 W/m

0.00 mm

23:25

9.4 C

1011.1 hpa

90 %

6.4 km/h aus 111

14.5 km/h aus SW

7.8 C

8.8 C

8.7 C

9.6 C

0 W/m

0.00 mm

23:30

9.4 C

1011.2 hpa

90 %

6.4 km/h aus 96

12.9 km/h aus SSW

7.8 C

8.8 C

8.7 C

9.6 C

0 W/m

0.00 mm

23:35

9.3 C

1011.2 hpa

90 %

4.8 km/h aus 102

11.3 km/h aus S

7.8 C

9.2 C

9.1 C

9.5 C

0 W/m

0.00 mm

23:40

9.3 C

1011.2 hpa

90 %

6.4 km/h aus 106

9.7 km/h aus SSW

7.8 C

8.8 C

8.6 C

9.5 C

0 W/m

0.00 mm

23:45

9.3 C

1011.3 hpa

90 %

8.0 km/h aus 109

12.9 km/h aus S

7.7 C

8.3 C

8.2 C

9.4 C

0 W/m

0.00 mm

23:50

9.2 C

1011.3 hpa

90 %

9.7 km/h aus 114

14.5 km/h aus S

7.7 C

7.9 C

7.8 C

9.4 C

0 W/m

0.00 mm

23:55

9.2 C

1011.3 hpa

90 %

6.4 km/h aus 111

12.9 km/h aus SSW

7.6 C

8.6 C

8.4 C

9.3 C

0 W/m

0.00 mm